This is the latest recevied weather packets stored in our database for station/object OK1TOM-6. If no packets are shown the sender has not sent any weather packets the latest 10 day(s).
| Time | Temp. | Humidity | Pressure | Rain* | Wind** | Luminosity | Snow |
|---|---|---|---|---|---|---|---|
| 1777701938 | 13.33° C | 50% | 1027.2 hPa | 0 mm | - | - | - |
| 1777701335 | 12.78° C | 55% | 1027.2 hPa | 0 mm | - | - | - |
| 1777700731 | 12.22° C | 56% | 1027.2 hPa | 0 mm | - | - | - |
| 1777700128 | 10.56° C | 65% | 1027.1 hPa | 0 mm | - | - | - |
| 1777699525 | 10° C | 69% | 1027.2 hPa | 0 mm | - | - | - |
| 1777698921 | 8.89° C | 71% | 1027.2 hPa | 0 mm | - | - | - |
| 1777698318 | 6.67° C | 76% | 1027.1 hPa | 0 mm | - | - | - |
| 1777697774 | 6.67° C | 75% | 1027.1 hPa | 0 mm | - | - | - |
| 1777697171 | 6.11° C | 76% | 1027.1 hPa | 0 mm | - | - | - |
| 1777696568 | 5° C | 78% | 1027.1 hPa | 0 mm | - | - | - |
| 1777695964 | 4.44° C | 79% | 1027.1 hPa | 0 mm | - | - | - |
| 1777695361 | 4.44° C | 79% | 1027 hPa | 0 mm | - | - | - |
| 1777694757 | 4.44° C | 78% | 1027.1 hPa | 0 mm | - | - | - |
| 1777694154 | 5° C | 76% | 1027.1 hPa | 0 mm | - | - | - |
| 1777693550 | 5.56° C | 75% | 1027.1 hPa | 0 mm | - | - | - |
| 1777692947 | 5° C | 76% | 1027.3 hPa | 0 mm | - | - | - |
| 1777692343 | 5.56° C | 75% | 1027.3 hPa | 0 mm | - | - | - |
| 1777691740 | 5.56° C | 76% | 1027.2 hPa | 0 mm | - | - | - |
| 1777691137 | 5.56° C | 74% | 1027.3 hPa | 0 mm | - | - | - |
| 1777690533 | 5.56° C | 74% | 1027.4 hPa | 0 mm | - | - | - |
| 1777689930 | 5.56° C | 74% | 1027.6 hPa | 0 mm | - | - | - |
| 1777689327 | 5° C | 75% | 1027.5 hPa | 0 mm | - | - | - |
| 1777688723 | 5.56° C | 75% | 1027.8 hPa | 0 mm | - | - | - |
| 1777688120 | 5.56° C | 75% | 1027.8 hPa | 0 mm | - | - | - |
| 1777687516 | 5.56° C | 75% | 1027.7 hPa | 0 mm | - | - | - |
* Rain latest hour (hover to see other rain measurements)
** Current wind speed in m/s (hover to see current wind gust speed)